Limon, CO

2:41 AM MDT on October 23, 2019 (GMT -0600)
Limon Municipal

Weather History for KLIC - September, 2019

Change the Weather History Date:

Saturday, September 21, 2019

  Actual Average Record
Temperature  
Mean Temperature 61 °F -  
Max Temperature 79 °F - 93 °F (2005)
Min Temperature 43 °F - 30 °F (1999)
Degree Days  
Heating Degree Days 4    
Month to date heating degree days 15  
Cooling Degree Days 0    
Month to date cooling degree days 76  
Growing Degree Days 11 (Base 50)    
Moisture  
Dew Point 32 °F    
Average Humidity 37    
Maximum Humidity 58    
Minimum Humidity 16    
Precipitation  
Precipitation 0.01 in - 0.44 in (2004)
Month to date precipitation 0.31  
Year to date precipitation 12.70  
Snow  
Snow 0.00 in - - ()
Snow Depth 0.00 in    
Sea Level Pressure  
Sea Level Pressure 29.83 in    
Wind  
Wind Speed 10 mph (ENE)    
Max Wind Speed 31 mph    
Max Gust Speed 39 mph    
Visibility 10 miles    
Events Rain , Thunderstorm    
T = Trace of Precipitation, MM = Missing Value Source: NWS Daily Summary

Daily Weather History Graph

Daily Weather History Graph

Search for Another Location

Airport or City:

Astronomy

Sep. 21, 2019 Rise Set
Actual Time 6:41 AM MDT 6:53 PM MDT
Civil Twilight 6:14 AM MDT 7:20 PM MDT
Nautical Twilight 5:43 AM MDT 7:51 PM MDT
Astronomical Twilight 5:11 AM MDT 8:23 PM MDT
Moon 11:35 PM MDT (9/21) 1:47 PM MDT (9/21)
Length of Visible Light 13h 05m
Length of Day
12h 12m
Waning Gibbous, 54% of the Moon is Illuminated
Sep 21
Waning Gibbous
Sep 21
Last Quarter
Sep 28
New
Oct 5
First Quarter
Oct 13
Full

Hourly Weather History & Observations

Time (MDT) Temp. Dew Point Humidity Pressure Visibility Wind Dir Wind Speed Gust Speed Precip Events Conditions
12:55 AM 57.0 °F 30.0 °F 36% 29.73 in 10.0 mi North 8.1 mph - N/A   Clear
1:55 AM 51.1 °F 33.1 °F 50% 29.76 in 10.0 mi North 6.9 mph - N/A   Clear
2:55 AM 48.9 °F 33.1 °F 54% 29.76 in 10.0 mi North 5.8 mph - N/A   Clear
3:55 AM 53.1 °F 32.0 °F 45% 29.75 in 10.0 mi NNE 11.5 mph - N/A   Clear
4:55 AM 52.0 °F 30.9 °F 45% 29.78 in 10.0 mi WNW 4.6 mph - N/A   Clear
5:55 AM 48.9 °F 30.9 °F 50% 29.83 in 10.0 mi WNW 3.5 mph - N/A   Clear
6:55 AM 44.1 °F 30.0 °F 58% 29.88 in 10.0 mi Calm Calm - N/A   Clear
7:55 AM 52.0 °F 30.9 °F 45% 29.91 in 10.0 mi Calm Calm - N/A   Clear
8:55 AM 63.0 °F 30.0 °F 29% 29.88 in 10.0 mi ENE 10.4 mph - N/A   Clear
9:55 AM 66.0 °F 27.0 °F 23% 29.86 in 10.0 mi East 15.0 mph - N/A   Clear
10:55 AM 70.0 °F 25.0 °F 18% 29.83 in 10.0 mi East 11.5 mph 21.9 mph N/A   Clear
11:55 AM 72.0 °F 25.0 °F 17% 29.83 in 10.0 mi SE 17.3 mph 21.9 mph N/A   Clear
12:55 PM 73.9 °F 27.0 °F 18% 29.83 in 10.0 mi SE 12.7 mph 23.0 mph N/A   Clear
1:55 PM 75.0 °F 28.9 °F 18% 29.82 in 10.0 mi SSE 11.5 mph 21.9 mph N/A   Clear
2:55 PM 77.0 °F 28.9 °F 17% 29.79 in 10.0 mi SSE 12.7 mph 27.6 mph N/A   Clear
4:55 PM 78.1 °F 30.0 °F 17% 29.73 in 10.0 mi SE 21.9 mph 27.6 mph N/A   Clear
5:55 PM 75.9 °F 30.9 °F 19% 29.73 in 10.0 mi ESE 20.7 mph 26.5 mph N/A   Clear
6:55 PM 69.1 °F 36.0 °F 30% 29.77 in 10.0 mi ESE 17.3 mph - N/A   Clear
7:55 PM 66.0 °F 37.0 °F 34% 29.77 in 10.0 mi East 15.0 mph - N/A   Clear
8:55 PM 64.0 °F 39.0 °F 40% 29.82 in 10.0 mi NNE 15.0 mph - N/A   Clear
9:10 PM 63.0 °F 30.9 °F 30% 30.04 in 10.0 mi North 23.0 mph 34.5 mph N/A   Scattered Clouds
9:55 PM 57.0 °F 39.0 °F 51% 29.89 in 10.0 mi North 19.6 mph 34.5 mph N/A   Overcast
10:24 PM 53.1 °F 42.1 °F 66% 30.09 in 10.0 mi North 19.6 mph 38.0 mph 0.00 in Rain , Thunderstorm Light Rain
11:55 PM 48.0 °F 44.1 °F 86% 29.94 in 10.0 mi North 13.8 mph 25.3 mph 0.00 in   Partly Cloudy